FANDOM


The following data is cached, and was last updated 18:01, February 18, 2020. A maximum of 1,000 results are available in the cache.

View (previous 500 | next 500) (20 | 50 | 100 | 250 | 500)

  1. Nameless‏‎ (23:53, September 10, 2011)
  2. Battle of the Wu Dan Mountains‏‎ (01:53, September 12, 2011)
  3. Shantou‏‎ (20:15, June 5, 2012)
  4. Battle of the Under-City‏‎ (03:59, July 15, 2012)
  5. Lei Lang‏‎ (15:44, August 18, 2012)
  6. Butterfly‏‎ (06:17, February 2, 2013)
  7. Battle of the Tortoise Village‏‎ (15:15, June 9, 2013)
  8. Iron Samara‏‎ (21:15, June 18, 2013)
  9. Gong Tau‏‎ (21:04, June 21, 2013)
  10. Festival of Figurines‏‎ (01:40, July 13, 2013)
  11. My Favorite Yao/Quotes‏‎ (18:30, October 10, 2013)
  12. Gahri/Quotes‏‎ (17:33, December 29, 2013)
  13. Fenghuang/Quotes‏‎ (17:50, December 29, 2013)
  14. Scorpion/Quotes‏‎ (17:51, December 29, 2013)
  15. Song/Quotes‏‎ (18:01, December 29, 2013)
  16. Nao Yuedu‏‎ (17:59, February 9, 2014)
  17. Cho Li‏‎ (19:16, February 9, 2014)
  18. Li Ling‏‎ (21:55, February 9, 2014)
  19. Ling‏‎ (22:00, February 9, 2014)
  20. Blade of Bao Ding‏‎ (03:18, February 16, 2014)
  21. Dagger of Deng Wa‏‎ (03:19, February 16, 2014)
  22. In With the Old/Quotes‏‎ (22:33, February 28, 2014)
  23. Kung Fu Club (episode)/Quotes‏‎ (22:34, February 28, 2014)
  24. Secret Formula for Living Clay‏‎ (05:34, March 1, 2014)
  25. Shank of Shantou‏‎ (05:56, March 1, 2014)
  26. Apple Cart Duck/Quotes‏‎ (18:08, March 1, 2014)
  27. Ju-Long/Quotes‏‎ (02:29, March 2, 2014)
  28. Dragon Grotto‏‎ (19:19, March 10, 2014)
  29. Fireworks Factory‏‎ (19:30, March 10, 2014)
  30. Forbidden Forest‏‎ (19:32, March 10, 2014)
  31. Garnet Palace‏‎ (19:37, March 10, 2014)
  32. Jhao Dzuh‏‎ (18:07, March 16, 2014)
  33. Jinzhou Palace‏‎ (18:17, March 16, 2014)
  34. Lin Ju Village‏‎ (18:40, March 16, 2014)
  35. Lu Mong‏‎ (18:43, March 16, 2014)
  36. Monkey's village‏‎ (21:46, March 22, 2014)
  37. Moshu Market‏‎ (21:49, March 22, 2014)
  38. Old Temple Grounds‏‎ (22:24, March 22, 2014)
  39. Thunder Hill‏‎ (16:57, March 23, 2014)
  40. Undercity‏‎ (17:12, March 23, 2014)
  41. Valley of Woe‏‎ (18:11, March 29, 2014)
  42. Wú Zhù Village‏‎ (18:25, March 29, 2014)
  43. Zhu Jian Hot Springs‏‎ (18:31, March 29, 2014)
  44. Shen/Quotes‏‎ (23:16, September 17, 2014)
  45. Gongmen Harbor‏‎ (20:51, October 3, 2014)
  46. Mount Penglai‏‎ (16:09, October 17, 2014)
  47. Boss Wolf/Quotes‏‎ (17:29, October 17, 2014)
  48. Kung Fu Panda 2/Commentary transcript‏‎ (18:35, November 29, 2014)
  49. Kung Fu Panda: Everyone Is Kung Fu Fighting‏‎ (16:22, March 22, 2015)
  50. Kung Fu Panda: The Slow Fast and Other Stories‏‎ (19:24, March 22, 2015)
  51. Kung Fu Panda: Kung Fu Crew‏‎ (19:46, March 22, 2015)
  52. Cheng's village‏‎ (02:16, March 30, 2015)
  53. Baboon Boss‏‎ (04:41, June 13, 2015)
  54. Chinese Pangolin‏‎ (05:20, June 13, 2015)
  55. Fire‏‎ (05:33, June 13, 2015)
  56. Former Mount Penglai Official‏‎ (05:34, June 13, 2015)
  57. Heng‏‎ (05:35, June 13, 2015)
  58. Nokai‏‎ (06:12, June 13, 2015)
  59. Huli‏‎ (06:50, June 13, 2015)
  60. Mu Tong Fields‏‎ (08:52, June 17, 2015)
  61. Rhino's staff‏‎ (08:55, June 17, 2015)
  62. Bamboo Forest‏‎ (06:29, June 18, 2015)
  63. Zhou Dan‏‎ (02:59, June 21, 2015)
  64. Can-Shoo‏‎ (03:11, June 21, 2015)
  65. Cheen-Gwan‏‎ (03:11, June 21, 2015)
  66. Dosu‏‎ (03:12, June 21, 2015)
  67. Guru Llama‏‎ (03:19, June 21, 2015)
  68. Pong‏‎ (03:20, June 21, 2015)
  69. Han Sr.‏‎ (03:20, June 21, 2015)
  70. Piggy‏‎ (03:41, June 21, 2015)
  71. Mayor Pig‏‎ (03:57, June 21, 2015)
  72. Metal‏‎ (03:58, June 21, 2015)
  73. Mr. Liu‏‎ (03:58, June 21, 2015)
  74. Wo Hop‏‎ (19:21, June 22, 2015)
  75. Wa Su Li River‏‎ (15:56, August 3, 2015)
  76. Wen Shen‏‎ (15:58, August 3, 2015)
  77. Onyx Temple‏‎ (16:04, August 3, 2015)
  78. Kung Fu Panda/Commentary transcript‏‎ (23:06, August 19, 2015)
  79. Battle between kung fu masters and Komodo Dragons‏‎ (15:57, August 22, 2015)
  80. Battle between Po and Great Gorilla‏‎ (15:57, August 22, 2015)
  81. Battle between Po and the Wu Sisters‏‎ (14:56, August 23, 2015)
  82. Battle between Po and Zhou Dan‏‎ (15:00, August 23, 2015)
  83. Battle of Tai Lung's Training Grounds‏‎ (17:29, August 25, 2015)
  84. Kung Fu Panda: It's Elemental and Other Stories‏‎ (22:54, October 15, 2015)
  85. Twelve Impossible Moves‏‎ (02:55, November 23, 2015)
  86. Wings of Justice‏‎ (03:01, November 23, 2015)
  87. Stars of Destiny‏‎ (03:01, November 23, 2015)
  88. Puppet of Death‏‎ (03:01, November 23, 2015)
  89. Five Mystic Kung Fu Secrets‏‎ (03:06, November 23, 2015)
  90. Iron Heart‏‎ (03:06, November 23, 2015)
  91. Staying-still-for-a-really-long-time technique‏‎ (03:12, November 23, 2015)
  92. Tai Lung's sword‏‎ (23:35, November 26, 2015)
  93. Gong Lu Medallion‏‎ (23:35, November 26, 2015)
  94. Shuyong seed‏‎ (00:15, November 27, 2015)
  95. Ding's spirit orbs‏‎ (00:15, November 27, 2015)
  96. Whooping Sun Diamond Blade‏‎ (00:15, November 27, 2015)
  97. Secret Scroll‏‎ (00:15, November 27, 2015)
  98. Alabaster Pot of Remembrance‏‎ (00:15, November 27, 2015)
  99. Zhou Deng Soul Gem‏‎ (00:15, November 27, 2015)
  100. Ox's sword‏‎ (00:15, November 27, 2015)
  101. Tri bo yao‏‎ (00:19, November 27, 2015)
  102. Golden Ladle‏‎ (00:19, November 27, 2015)
  103. Master Oogway painting‏‎ (00:19, November 27, 2015)
  104. Zhuangzi's Funnel‏‎ (00:19, November 27, 2015)
  105. Helmet of the Invincible Thunder Kick‏‎ (00:19, November 27, 2015)
  106. Dugong Dagger‏‎ (00:19, November 27, 2015)
  107. Wu Di instruments‏‎ (00:23, November 27, 2015)
  108. Blades of Death‏‎ (00:24, November 27, 2015)
  109. Dragon Chalice‏‎ (00:24, November 27, 2015)
  110. Sun orchid‏‎ (00:24, November 27, 2015)
  111. Croc's cape‏‎ (00:24, November 27, 2015)
  112. Gan Xiang Sapphire‏‎ (00:28, November 27, 2015)
  113. Kung fu relics‏‎ (00:28, November 27, 2015)
  114. Xian Xang‏‎ (00:28, November 27, 2015)
  115. Infinite Obsta-Gauntlet Course of Trapishness‏‎ (00:28, November 27, 2015)
  116. Phantom Crystal‏‎ (00:28, November 27, 2015)
  117. Gong Tau Potion‏‎ (00:28, November 27, 2015)
  118. Shadow Crowns‏‎ (00:30, November 27, 2015)
  119. Stone of Lu Mong‏‎ (00:30, November 27, 2015)
  120. Undertaker's scepter‏‎ (00:30, November 27, 2015)
  121. Xin Ruby‏‎ (00:30, November 27, 2015)
  122. Zhanmadao Sword‏‎ (00:30, November 27, 2015)
  123. Ancient Locking Stocks‏‎ (00:33, November 27, 2015)
  124. Bashing Beam‏‎ (00:33, November 27, 2015)
  125. Botongy plant‏‎ (00:33, November 27, 2015)
  126. Imperial Jewels‏‎ (00:33, November 27, 2015)
  127. Iron turtle shell‏‎ (00:33, November 27, 2015)
  128. Jade Orb of Infinite Power‏‎ (00:34, November 27, 2015)
  129. Logs of Lamentation‏‎ (00:34, November 27, 2015)
  130. Mongolian Fist Demon Jar‏‎ (00:34, November 27, 2015)
  131. Mu Tong root‏‎ (00:34, November 27, 2015)
  132. Old Mill‏‎ (00:46, November 27, 2015)
  133. Serpentine Sea‏‎ (00:46, November 27, 2015)
  134. Tsin's fortress‏‎ (00:46, November 27, 2015)
  135. Ding's Prison Castle‏‎ (00:51, November 27, 2015)
  136. Kung Fu Express Headquarters‏‎ (00:51, November 27, 2015)
  137. Gongmen Jail‏‎ (00:51, November 27, 2015)
  138. Viper's village‏‎ (00:51, November 27, 2015)
  139. Muchang Township‏‎ (00:51, November 27, 2015)
  140. Secret Museum of Kung Fu‏‎ (00:51, November 27, 2015)
  141. Desert of Desertion‏‎ (00:54, November 27, 2015)
  142. Canyon of the Shrieking Wind‏‎ (00:54, November 27, 2015)
  143. Hubei Volcano‏‎ (00:54, November 27, 2015)
  144. Shantou Palace‏‎ (00:54, November 27, 2015)
  145. Canyon You Should Never Cross‏‎ (00:54, November 27, 2015)
  146. Bridge of Mists‏‎ (00:57, November 27, 2015)
  147. Camelback Mountain‏‎ (00:57, November 27, 2015)
  148. Cave of Mysteries‏‎ (00:57, November 27, 2015)
  149. Chen Wei‏‎ (00:57, November 27, 2015)
  150. Children's Hospital‏‎ (00:57, November 27, 2015)
  151. Corridor of Unbelievable Agony‏‎ (00:57, November 27, 2015)
  152. Dragon's Den‏‎ (00:57, November 27, 2015)
  153. Forest of Isolation‏‎ (00:57, November 27, 2015)
  154. Valley of Peace Cemetery‏‎ (01:00, November 27, 2015)
  155. Valley of the Scorpion‏‎ (01:00, November 27, 2015)
  156. Tortoise Village‏‎ (01:00, November 27, 2015)
  157. Tai Yang Temple‏‎ (01:00, November 27, 2015)
  158. Grain Mill‏‎ (01:03, November 27, 2015)
  159. Imperial Museum‏‎ (01:03, November 27, 2015)
  160. Jagged Cliffs of Death‏‎ (01:03, November 27, 2015)
  161. Jong's Land‏‎ (01:03, November 27, 2015)
  162. Kabuki Crest‏‎ (01:03, November 27, 2015)
  163. Kong Bai Stadium‏‎ (01:03, November 27, 2015)
  164. Mantis' village‏‎ (01:03, November 27, 2015)
  165. Ya Ya‏‎ (03:25, January 14, 2016)
  166. Belt of Cosmic Cohesion‏‎ (05:22, January 21, 2016)
  167. Many-Faced Mask of Mong‏‎ (05:25, January 21, 2016)
  168. Mist of Morpheus‏‎ (22:02, January 21, 2016)
  169. Kung Fu Panda 3/Quotes‏‎ (19:15, January 26, 2016)
  170. Oogway's statue‏‎ (16:34, January 30, 2016)
  171. Ho the Huge-Headed‏‎ (15:26, January 31, 2016)
  172. Jade Mountain‏‎ (04:40, February 2, 2016)
  173. Qidan bell trap‏‎ (00:04, February 10, 2016)
  174. Kung Fu Panda Holiday/Transcript‏‎ (01:05, February 10, 2016)
  175. Tong Fo's hideout‏‎ (17:58, February 16, 2016)
  176. Kung fu invention‏‎ (18:10, February 16, 2016)
  177. Spinning-blade staff‏‎ (18:11, February 16, 2016)
  178. Flying Bamboo Bird of Incalculable Retribution‏‎ (18:11, February 16, 2016)
  179. Whirling Thing of Unimaginable Retaliation‏‎ (18:15, February 16, 2016)
  180. Auto-ambulated Adapto-bot‏‎ (18:16, February 16, 2016)
  181. Iron Claws of Doom‏‎ (02:56, February 19, 2016)
  182. Jinzhou‏‎ (06:10, February 19, 2016)
  183. Bell tower‏‎ (05:24, February 20, 2016)
  184. Jin Tian's Tempest‏‎ (16:06, February 22, 2016)
  185. Komodo Dragon Invasion‏‎ (16:38, February 24, 2016)
  186. Great Wall of China‏‎ (23:36, February 28, 2016)
  187. Hundun's Noodle Shop‏‎ (23:38, February 28, 2016)
  188. Juggernaut‏‎ (00:09, March 31, 2016)
  189. Lee Da Kung Fu Academy‏‎ (20:29, March 31, 2016)
  190. Mystical Dagger‏‎ (00:45, April 3, 2016)
  191. Midnight Stranger‏‎ (19:59, April 4, 2016)
  192. Good Po‏‎ (08:12, April 11, 2016)
  193. Lake of Tears‏‎ (13:26, June 8, 2016)
  194. Demon Mountain‏‎ (19:12, June 9, 2016)
  195. Self-Punching Technique‏‎ (14:07, June 12, 2016)
  196. Mountain Pass‏‎ (14:33, June 15, 2016)
  197. Crimson Princess‏‎ (14:32, June 16, 2016)
  198. Shan Yue Mountain‏‎ (14:42, June 16, 2016)
  199. Lady Lotus Blossom‏‎ (16:01, June 16, 2016)
  200. River of Flowers‏‎ (16:07, June 16, 2016)
  201. Hajin Province‏‎ (16:10, June 16, 2016)
  202. City of Blissful Fragrance‏‎ (17:13, June 17, 2016)
  203. Ring Blades‏‎ (17:25, June 17, 2016)
  204. Golden Spear‏‎ (14:36, June 18, 2016)
  205. Kung Fu Panda Vol 1‏‎ (14:11, June 20, 2016)
  206. Kung Fu Panda Vol 2‏‎ (14:12, June 20, 2016)
  207. Mask of Triumph‏‎ (14:42, June 20, 2016)
  208. Moon Pool‏‎ (14:45, June 20, 2016)
  209. Dragon costume‏‎ (00:21, June 22, 2016)
  210. Thousand Tongues of Fire‏‎ (14:44, June 22, 2016)
  211. Peach tree sapling‏‎ (15:11, June 22, 2016)
  212. Kung Fu Panda 3/Marketing timeline‏‎ (14:21, June 27, 2016)
  213. Su‏‎ (18:21, June 30, 2016)
  214. Han‏‎ (19:03, June 30, 2016)
  215. Gorilla‏‎ (14:21, July 1, 2016)
  216. Master Viper‏‎ (14:23, July 1, 2016)
  217. Ox‏‎ (14:27, July 1, 2016)
  218. Bad Po‏‎ (14:29, July 1, 2016)
  219. Mill‏‎ (14:30, July 1, 2016)
  220. Birth Place of Kung Fu‏‎ (14:34, July 1, 2016)
  221. Boar‏‎ (14:39, July 1, 2016)
  222. Chang‏‎ (14:41, July 1, 2016)
  223. Dog‏‎ (14:42, July 1, 2016)
  224. Dragon Warrior‏‎ (14:43, July 1, 2016)
  225. Eternal Chord‏‎ (14:44, July 1, 2016)
  226. Fist of Justice‏‎ (14:45, July 1, 2016)
  227. Kung Fu Club‏‎ (14:46, July 1, 2016)
  228. Ladies of the Shade‏‎ (14:51, July 1, 2016)
  229. Legendary Warrior‏‎ (14:53, July 1, 2016)
  230. Leopard‏‎ (14:56, July 1, 2016)
  231. Mei Ling (disambiguation)‏‎ (15:01, July 1, 2016)
  232. Midnight Stranger (disambiguation)‏‎ (15:03, July 1, 2016)
  233. Panda‏‎ (15:06, July 1, 2016)
  234. Panda village‏‎ (15:07, July 1, 2016)
  235. Sheep‏‎ (15:11, July 1, 2016)
  236. Soundtrack‏‎ (15:12, July 1, 2016)
  237. Warrior of Black and White‏‎ (15:12, July 1, 2016)
  238. Xian‏‎ (15:14, July 1, 2016)
  239. Ming‏‎ (14:27, July 2, 2016)
  240. Bear (disambiguation)‏‎ (14:32, July 2, 2016)
  241. Goat‏‎ (18:50, July 6, 2016)
  242. Peach Tree Hill‏‎ (18:01, July 19, 2016)
  243. KG Shaw‏‎ (14:21, July 22, 2016)
  244. Palace Arena‏‎ (23:10, July 27, 2016)
  245. Golden Shield‏‎ (23:32, July 27, 2016)
  246. Seven Swinging Clubs of Instant Oblivion‏‎ (23:37, July 27, 2016)
  247. Emperor Hawk‏‎ (23:58, July 27, 2016)
  248. Ku Ku‏‎ (00:03, July 28, 2016)
  249. Shuai Shuai‏‎ (00:04, July 28, 2016)
  250. Mi‏‎ (00:06, July 28, 2016)
  251. Peony‏‎ (00:06, July 28, 2016)
  252. Lashing Tail of Terror‏‎ (15:24, July 28, 2016)
  253. Devil's Mouth‏‎ (15:27, July 28, 2016)
  254. Badger Bandits‏‎ (14:56, July 30, 2016)
  255. Barbarian horde‏‎ (15:23, July 30, 2016)
  256. Black Moon Scavenger Clan‏‎ (15:29, July 30, 2016)
  257. Black Steel Flying Lizards‏‎ (14:18, July 31, 2016)
  258. Crows‏‎ (14:56, July 31, 2016)
  259. Eshan Porcupines‏‎ (15:11, July 31, 2016)
  260. Five Elements‏‎ (23:18, July 31, 2016)
  261. Gorillas (video game)‏‎ (23:23, July 31, 2016)
  262. Great Masters‏‎ (23:39, July 31, 2016)
  263. Hoof Clan‏‎ (23:43, July 31, 2016)
  264. Hyenas of Handan‏‎ (23:46, July 31, 2016)
  265. Meng Meng‏‎ (14:16, August 1, 2016)
  266. Imperial Golden Croc Gang‏‎ (14:55, August 1, 2016)
  267. Ishida Clan‏‎ (15:02, August 1, 2016)
  268. Jackal Nation‏‎ (15:04, August 1, 2016)
  269. Kozumoto Clam Clan‏‎ (20:22, August 1, 2016)
  270. Kung Fu Express‏‎ (15:35, August 2, 2016)
  271. Twins‏‎ (15:52, August 2, 2016)
  272. Ladies of the Shade (group)‏‎ (15:58, August 2, 2016)
  273. Lao Shu‏‎ (16:12, August 2, 2016)
  274. Panda Pals‏‎ (00:24, August 4, 2016)
  275. Pandas‏‎ (15:54, August 4, 2016)
  276. Jade Tortoise of Wisdom‏‎ (19:18, August 12, 2016)
  277. Seven-Talon Rings‏‎ (16:09, August 15, 2016)
  278. Gauntlet of Wooden Warriors‏‎ (16:19, August 15, 2016)
  279. Field of Fiery Death‏‎ (16:24, August 15, 2016)
  280. Ming (panda)‏‎ (16:03, August 21, 2016)
  281. Wolf‏‎ (14:16, August 28, 2016)
  282. Yin yang staff‏‎ (00:31, August 31, 2016)
  283. Lady Wind Song‏‎ (16:09, September 8, 2016)
  284. Kira‏‎ (13:45, September 11, 2016)
  285. Wood‏‎ (19:48, September 15, 2016)
  286. Panda Stumble‏‎ (14:04, September 19, 2016)
  287. Apple Cart Duck‏‎ (22:55, September 22, 2016)
  288. Prawn‏‎ (21:57, September 24, 2016)
  289. Eagle‏‎ (00:14, September 25, 2016)
  290. Lao‏‎ (23:31, September 26, 2016)
  291. Lian‏‎ (18:56, October 2, 2016)
  292. Mr. Yeung‏‎ (14:14, October 10, 2016)
  293. Slaying Slicers‏‎ (18:14, October 11, 2016)
  294. Kwan‏‎ (16:36, October 15, 2016)
  295. Tang‏‎ (16:38, October 15, 2016)
  296. Shengqi‏‎ (16:43, October 15, 2016)
  297. Jong's son‏‎ (16:51, October 15, 2016)
  298. Yak‏‎ (16:52, October 15, 2016)
  299. Golden Takin‏‎ (16:53, October 15, 2016)
  300. Jin Hu‏‎ (16:53, October 15, 2016)
  301. Sarcophagus of Su Wu‏‎ (00:10, October 22, 2016)
  302. Cloud Hammer‏‎ (14:12, October 22, 2016)
  303. Dolphin‏‎ (00:28, November 13, 2016)
  304. Wu Fortress‏‎ (00:30, November 17, 2016)
  305. Cheng‏‎ (18:37, November 24, 2016)
  306. Po's village‏‎ (15:32, November 29, 2016)
  307. Gorilla bandit‏‎ (00:48, December 1, 2016)
  308. Crab‏‎ (10:48, December 13, 2016)
  309. Komodo‏‎ (10:49, December 13, 2016)
  310. Shen's conquest‏‎ (23:07, December 17, 2016)
  311. Lang Shadow Army‏‎ (01:21, December 18, 2016)
  312. Lin Kuei‏‎ (01:23, December 18, 2016)
  313. Big Jun‏‎ (01:26, December 18, 2016)
  314. Mei‏‎ (01:30, December 18, 2016)
  315. Qinchu‏‎ (01:35, December 18, 2016)
  316. Monkey's mother‏‎ (19:44, January 7, 2017)
  317. Ancient pandas‏‎ (19:45, January 7, 2017)
  318. Tsao‏‎ (23:00, January 9, 2017)
  319. Sheep (character)‏‎ (06:28, January 10, 2017)
  320. Grim‏‎ (13:32, January 12, 2017)
  321. Ngoh Wan Crocodile Clan‏‎ (19:16, January 12, 2017)
  322. Water‏‎ (19:16, January 12, 2017)
  323. Crocodile Sergeant‏‎ (22:50, January 16, 2017)
  324. Yang‏‎ (21:51, January 18, 2017)
  325. Wushen‏‎ (20:22, January 19, 2017)
  326. Gilded Emperor‏‎ (20:22, January 19, 2017)
  327. Mugan‏‎ (19:59, January 21, 2017)
  328. Fields of Cherry Blossoms‏‎ (18:22, January 28, 2017)
  329. Kung Fu Masters-Lang Shadow War‏‎ (01:03, February 1, 2017)
  330. Big Fun‏‎ (03:28, February 26, 2017)
  331. Feng‏‎ (19:08, March 5, 2017)
  332. Hseih‏‎ (22:08, March 24, 2017)
  333. Badger Twin 2‏‎ (17:57, April 2, 2017)
  334. Fire Lake‏‎ (21:46, April 18, 2017)
  335. Forest of Pain‏‎ (21:51, April 18, 2017)
  336. Furious Five action figures‏‎ (20:18, April 30, 2017)
  337. Love Stings/Quotes‏‎ (13:22, June 1, 2017)
  338. Battle Elephant of Unreckonable Malevolence‏‎ (13:23, June 1, 2017)
  339. Shift stones‏‎ (13:30, June 1, 2017)
  340. Rong‏‎ (02:22, June 3, 2017)
  341. Mr. Ting‏‎ (13:38, June 15, 2017)
  342. Tower of the Sacred Flame‏‎ (23:46, June 15, 2017)
  343. Hippo‏‎ (14:01, July 5, 2017)
  344. Yi Min‏‎ (01:26, July 14, 2017)
  345. Mongolia‏‎ (13:55, July 25, 2017)
  346. Galapagos Islands‏‎ (00:24, July 29, 2017)
  347. Po/Relationships‏‎ (19:54, August 9, 2017)
  348. Po/Biography‏‎ (19:54, August 9, 2017)
  349. Brotherhood of Malfeasance‏‎ (14:34, August 11, 2017)
  350. Shuyong Tree‏‎ (21:43, August 26, 2017)
  351. Mei Ling (student)‏‎ (08:58, September 5, 2017)
  352. Wuxi‏‎ (18:36, November 14, 2017)
  353. Wan Wu‏‎ (01:05, November 25, 2017)
  354. First Valley Crisis‏‎ (11:16, November 27, 2017)
  355. Battle of Shin Huan‏‎ (15:11, November 27, 2017)
  356. Battle of the Thread of Hope‏‎ (15:14, November 27, 2017)
  357. Battle of Artisan Village‏‎ (15:16, November 27, 2017)
  358. Battle of the Valley of Peace‏‎ (03:18, November 28, 2017)
  359. Battle of Weeping River‏‎ (03:22, November 28, 2017)
  360. Battle of Wu Fortress‏‎ (03:57, November 28, 2017)
  361. Dream Battle of the Valley of Peace‏‎ (04:02, November 28, 2017)
  362. Battle between Po and Shen's fleet‏‎ (07:14, November 28, 2017)
  363. First battle between kung fu masters and Shen's army‏‎ (07:22, November 28, 2017)
  364. Battle between Oogway and Kai‏‎ (10:11, November 28, 2017)
  365. Battle between Po and Shen‏‎ (10:19, November 28, 2017)
  366. Second battle of Gongmen City‏‎ (10:22, November 28, 2017)
  367. Siege of Chou Lung‏‎ (10:29, November 28, 2017)
  368. Oogway/Quotes‏‎ (10:33, November 28, 2017)
  369. Birth of kung fu‏‎ (10:41, November 28, 2017)
  370. Dragon Warrior Day‏‎ (14:23, November 28, 2017)
  371. Dragon Warrior Tournament‏‎ (06:51, December 2, 2017)
  372. Bing‏‎ (16:50, December 2, 2017)
  373. Gahri‏‎ (16:50, December 2, 2017)
  374. Wall Eye‏‎ (16:50, December 2, 2017)
  375. Irwin‏‎ (16:50, December 2, 2017)
  376. Battle of the Fireworks Factory‏‎ (20:06, December 6, 2017)
  377. Hom-Lee‏‎ (16:33, December 9, 2017)
  378. Massacre of the Pandas‏‎ (20:10, December 31, 2017)
  379. Wing Wu‏‎ (19:35, January 2, 2018)
  380. Kitsune‏‎ (21:38, January 4, 2018)
  381. Massacred pandas‏‎ (19:52, January 27, 2018)
  382. Pai Mei‏‎ (04:07, January 28, 2018)
  383. Noodle shop‏‎ (04:13, March 11, 2018)
  384. Spirit Warrior‏‎ (20:18, March 21, 2018)
  385. Sword of Xi'an‏‎ (15:05, March 22, 2018)
  386. Mount Huo Shan‏‎ (15:05, March 22, 2018)
  387. Battle Rickshaw of Emperor Hawk‏‎ (19:27, March 23, 2018)
  388. Sphere of Unerringly Accurate Acupressure‏‎ (19:36, March 23, 2018)
  389. Tong Lo‏‎ (14:16, March 25, 2018)
  390. Kung fu monks‏‎ (19:43, March 25, 2018)
  391. Yao‏‎ (20:13, March 29, 2018)
  392. Master Gorilla‏‎ (20:18, March 29, 2018)
  393. Mongolian Fist Demon‏‎ (22:14, March 29, 2018)
  394. Temutai‏‎ (16:41, March 30, 2018)
  395. Wu Dan Mountains‏‎ (19:14, March 30, 2018)
  396. Owl Be Back/Quotes‏‎ (14:16, April 5, 2018)
  397. Bad Po (episode)/Quotes‏‎ (14:27, April 5, 2018)
  398. Ghost of Oogway/Quotes‏‎ (14:21, April 6, 2018)
  399. Adversary‏‎ (03:54, April 9, 2018)
  400. Training Hall‏‎ (03:55, April 9, 2018)
  401. Artisan Village‏‎ (02:56, April 10, 2018)
  402. Winter Feast‏‎ (19:30, April 10, 2018)
  403. Legend of the Legendary Warrior/Transcript‏‎ (19:15, April 13, 2018)
  404. Owl-shaped cage‏‎ (00:30, April 14, 2018)
  405. A Stitch in Time/Transcript‏‎ (02:40, April 14, 2018)
  406. Apocalypse Yao/Transcript‏‎ (02:40, April 14, 2018)
  407. Bad Po (episode)/Transcript‏‎ (02:42, April 14, 2018)
  408. Big Bro Po/Transcript‏‎ (02:42, April 14, 2018)
  409. Bosom Enemies/Transcript‏‎ (02:42, April 14, 2018)
  410. The Break Up/Transcript‏‎ (02:43, April 14, 2018)
  411. Bride of Po/Transcript‏‎ (02:45, April 14, 2018)
  412. Camp Ping/Transcript‏‎ (02:45, April 14, 2018)
  413. Challenge Day/Transcript‏‎ (02:46, April 14, 2018)
  414. Crane on a Wire/Transcript‏‎ (02:46, April 14, 2018)
  415. Crazy Little Ling Called Love/Transcript‏‎ (02:46, April 14, 2018)
  416. Croc You Like a Hurricane/Transcript‏‎ (02:47, April 14, 2018)
  417. Emperors Rule/Transcript‏‎ (02:47, April 14, 2018)
  418. Enter the Dragon/Transcript‏‎ (02:47, April 14, 2018)
  419. Eternal Chord (episode)/Transcript‏‎ (02:48, April 14, 2018)
  420. Father Crime/Transcript‏‎ (02:48, April 14, 2018)
  421. Fluttering Finger Mindslip (episode)/Transcript‏‎ (02:49, April 14, 2018)
  422. Forsaken and Furious/Transcript‏‎ (02:49, April 14, 2018)
  423. Ghost of Oogway/Transcript‏‎ (02:49, April 14, 2018)
  424. Good Croc, Bad Croc/Transcript‏‎ (02:50, April 14, 2018)
  425. Goose Chase/Transcript‏‎ (02:50, April 14, 2018)
  426. The Goosefather/Transcript‏‎ (02:50, April 14, 2018)
  427. Hall of Lame/Transcript‏‎ (02:51, April 14, 2018)
  428. Has-been Hero/Transcript‏‎ (02:51, April 14, 2018)
  429. Hometown Hero/Transcript‏‎ (02:52, April 14, 2018)
  430. Huge/Transcript‏‎ (02:52, April 14, 2018)
  431. In With the Old/Transcript‏‎ (02:53, April 14, 2018)
  432. Kung Fu Club (episode)/Transcript‏‎ (02:54, April 14, 2018)
  433. Kung Fu Day Care/Transcript‏‎ (02:54, April 14, 2018)
  434. The Kung Fu Kid/Transcript‏‎ (02:55, April 14, 2018)
  435. Kung Shoes/Transcript‏‎ (02:55, April 14, 2018)
  436. Master and the Panda/Transcript‏‎ (02:58, April 14, 2018)
  437. Mind Over Manners/Transcript‏‎ (03:00, April 14, 2018)
  438. Monkey in the Middle/Transcript‏‎ (03:01, April 14, 2018)
  439. The Most Dangerous Po/Transcript‏‎ (03:01, April 14, 2018)
  440. Mouth Off/Transcript‏‎ (03:02, April 14, 2018)
  441. My Favorite Yao/Transcript‏‎ (03:02, April 14, 2018)
  442. Owl Be Back/Transcript‏‎ (03:03, April 14, 2018)
  443. Po Fans Out/Transcript‏‎ (03:03, April 14, 2018)
  444. Po Picks a Pocket/Transcript‏‎ (03:03, April 14, 2018)
  445. Po the Croc/Transcript‏‎ (03:04, April 14, 2018)
  446. The Po Who Cried Ghost/Transcript‏‎ (03:04, April 14, 2018)
  447. Present Tense/Transcript‏‎ (03:05, April 14, 2018)
  448. The Real Dragon Warrior/Transcript‏‎ (03:08, April 14, 2018)
  449. Rhino's Revenge/Transcript‏‎ (03:08, April 14, 2018)
  450. Royal Pain/Transcript‏‎ (03:08, April 14, 2018)
  451. Scorpion's Sting/Transcript‏‎ (03:09, April 14, 2018)
  452. See No Weevil/Transcript‏‎ (03:10, April 14, 2018)
  453. Serpent's Tooth/Transcript‏‎ (03:10, April 14, 2018)
  454. Shifu's Ex/Transcript‏‎ (03:11, April 14, 2018)
  455. Terror Cotta/Transcript‏‎ (03:13, April 14, 2018)
  456. The First Five/Transcript‏‎ (03:14, April 14, 2018)
  457. A Thousand and Twenty Questions/Transcript‏‎ (03:14, April 14, 2018)
  458. War of the Noodles/Transcript‏‎ (03:15, April 14, 2018)
  459. The Way of the Prawn/Transcript‏‎ (03:16, April 14, 2018)
  460. Youth in Re-Volt/Transcript‏‎ (03:16, April 14, 2018)
  461. Kung Fu Panda: Legends of Awesomeness - Good Croc, Bad Croc‏‎ (14:41, April 14, 2018)
  462. Kung Fu Panda: Legends of Awesomeness - The Scorpion Sting‏‎ (14:49, April 14, 2018)
  463. Kung Fu Panda: Legends of Awesomeness - The Midnight Stranger‏‎ (14:49, April 14, 2018)
  464. Ding‏‎ (20:30, April 16, 2018)
  465. Kung Fu Club (group)‏‎ (22:53, April 23, 2018)
  466. Liang‏‎ (04:09, April 24, 2018)
  467. Eight-Armed Yangtze Spleen Punch‏‎ (01:43, April 25, 2018)
  468. Bride of Po/Quotes‏‎ (14:42, April 26, 2018)
  469. Bao Gu Orphanage‏‎ (13:36, April 29, 2018)
  470. Masters' Ceremonial Sparring‏‎ (14:14, May 1, 2018)
  471. Peace Jubilee‏‎ (14:18, May 1, 2018)
  472. Wonder and Wisdom Exchange‏‎ (14:35, May 1, 2018)
  473. Valley Crisis (video game)‏‎ (14:46, May 1, 2018)
  474. Jiang shi‏‎ (20:03, May 4, 2018)
  475. Xin Xao Forest‏‎ (20:05, May 4, 2018)
  476. Kung Fu Panda Digest: Noodle Cart Capers‏‎ (20:09, May 4, 2018)
  477. Legend of the Legendary Warrior‏‎ (16:05, May 6, 2018)
  478. Kung Fu Panda: The Game‏‎ (16:07, May 6, 2018)
  479. Kung Fu Panda: Legendary Warriors‏‎ (16:08, May 6, 2018)
  480. Kung Fu Panda 2: The Game‏‎ (16:09, May 6, 2018)
  481. Kung Fu Panda 2: Be the Master‏‎ (16:11, May 6, 2018)
  482. Kung Fu Panda: Battle of Destiny‏‎ (16:11, May 6, 2018)
  483. The Art of Kung Fu Panda‏‎ (16:13, May 6, 2018)
  484. The Art of Kung Fu Panda 2‏‎ (16:14, May 6, 2018)
  485. The Art of Kung Fu Panda 3‏‎ (16:14, May 6, 2018)
  486. Kung Fu Panda (manga)‏‎ (16:16, May 6, 2018)
  487. Kung Fu Panda: Art of Balance‏‎ (16:20, May 6, 2018)
  488. Kung Fu Panda Issue 2‏‎ (16:37, May 6, 2018)
  489. Kung Fu Panda Issue 3‏‎ (16:37, May 6, 2018)
  490. Kung Fu Panda Issue 4‏‎ (16:38, May 6, 2018)
  491. Kung Fu Panda Issue 5‏‎ (16:38, May 6, 2018)
  492. Kung Fu Panda Issue 6‏‎ (16:39, May 6, 2018)
  493. Kung Fu Panda: Tales of the Dragon Warrior Issue 1‏‎ (16:39, May 6, 2018)
  494. Kung Fu Panda: Tales of the Dragon Warrior Issue 2‏‎ (16:39, May 6, 2018)
  495. Kung Fu Panda: Tales of the Dragon Warrior Issue 3‏‎ (16:40, May 6, 2018)
  496. Kung Fu Panda: Tales of the Dragon Warrior Issue 4‏‎ (16:40, May 6, 2018)
  497. The Tao of Po‏‎ (16:41, May 6, 2018)
  498. Scorpion's Sting‏‎ (20:19, May 7, 2018)
  499. Sticky Situation‏‎ (20:20, May 7, 2018)
  500. Chain Reaction‏‎ (20:20, May 7, 2018)

View (previous 500 | next 500) (20 | 50 | 100 | 250 | 500)

Community content is available under CC-BY-SA unless otherwise noted.